Lexington Weather

Lexington, Massachusetts, USA

41°F
11/27/2020 3:30am 
  • Lexington Conditions: Fog, Overcast
  • Temperature: 41.2°F / 5.1°CWarmer 1.5°F than last hour.
  • Dew Point: 40.5°FIncreased 1.5°Fsince last hour.
  • Relative Humidity: 97
  • Wind: Calm, 10-min avg: Calm, gust: None
  • Barometer: 29.97 in Steady
  • Visibility: ½ mile
  • Rain Today: 0.00 in
  •   
Southeast Middlesex County - Special Weather Statement
 - SEE ALL NEARBY ALERTS -

Regional Weather Roundup
for Boston / Norton, MA

        
000
ASUS41 KBOX 221704
RWRBOX

REGIONAL WEATHER ROUNDUP
NATIONAL WEATHER SERVICE BOSTON/NORTON MA
1200 PM EST SUN NOV 22 2020

NOTE:  "FAIR" INDICATES FEW OR NO CLOUDS BELOW 12,000 FEET WITH NO 
SIGNIFICANT WEATHER AND/OR OBSTRUCTIONS TO VISIBILITY.

MAZALL-221800-
EASTERN MASSACHUSETTS
  
CITY           SKY/WX    TMP DP  RH WIND       PRES   REMARKS
BOSTON         CLOUDY    43  33  68 E14       30.53F                  
BEVERLY        CLOUDY    42  29  59 NE9       30.52F                  
LAWRENCE       CLOUDY    41  28  60 NE13      30.55F                  
BEDFORD        CLOUDY    42  30  62 E10       30.52F                  
BLUE HILL        N/A     41  34  76 E12       30.49F                  
NORWOOD        CLOUDY    46  34  62 E8        30.52F                  
MARSHFIELD     CLOUDY    46  37  71 E10G20    30.51F                  
PLYMOUTH       CLOUDY    46  36  68 E10       30.50F                  
TAUNTON        CLOUDY    49  36  61 VRB3      30.50F                  
NEW BEDFORD    CLOUDY    49  37  63 E8        30.48F                  
$$

MAZALL-221800-
CAPE COD AND THE ISLANDS
  
CITY           SKY/WX    TMP DP  RH WIND       PRES   REMARKS
FALMOUTH       CLOUDY    48  37  66 E9        30.49F                  
HYANNIS        CLOUDY    49  38  65 E8        30.48F                  
CHATHAM        CLOUDY    48  37  65 NE10      30.51F                  
PROVINCETOWN   CLOUDY    46  36  68 E10       30.52F                  
NANTUCKET      CLOUDY    52  42  69 NE14G22   30.47F                  
MARTHAS VNYRD  CLOUDY    51  40  65 NE17      30.48F                  
$$
 
MAZALL-221800-
CENTRAL AND WESTERN MASSACHUSETTS
  
CITY           SKY/WX    TMP DP  RH WIND       PRES   REMARKS
WORCESTER      CLOUDY    39  28  64 NE8       30.47F                  
FITCHBURG      CLOUDY    38  26  62 NE6       30.53F                  
ORANGE         CLOUDY    41  29  62 E8        30.50F                  
SPRINGFIELD    NOT AVBL                                               
WESTFIELD      CLOUDY    41  29  62 NW7       30.49F                  
NORTH ADAMS    CLOUDY    39  25  57 E8G18     30.48F                  
PITTSFIELD     CLOUDY    38  25  59 E7        30.43F                  
$$
 
RIZALL-221800-
RHODE ISLAND
  
CITY           SKY/WX    TMP DP  RH WIND       PRES   REMARKS
PROVIDENCE     CLOUDY    48  34  58 E12       30.49F                  
NEWPORT        CLOUDY    47  37  68 NE12      30.47F                  
BLOCK ISLAND   CLOUDY    48  40  73 E15       30.46F                  
SMITHFIELD     CLOUDY    45  34  65 VRB6      30.49F                  
WESTERLY       CLOUDY    49  37  63 NE14      30.47F                  
$$
 
CTZALL-221800-
CONNECTICUT
  
CITY           SKY/WX    TMP DP  RH WIND       PRES   REMARKS
BRADLEY INTL   LGT RAIN  43  29  57 N6        30.48F                  
HARTFORD       CLOUDY    43  29  57 N6        30.48F                  
BRIDGEPORT     CLOUDY    46  32  58 NE10      30.45F                  
DANBURY        CLOUDY    42  31  64 NE8       30.45F                  
GROTON         CLOUDY    49  38  65 E13       30.46F                  
NEW HAVEN      CLOUDY    48  35  60 E9        30.44F                  
CHESTER        CLOUDY    46  34  61 VRB6      30.45F                  
MERIDEN        CLOUDY    43  29  57 N5        30.47F                  
WILLIMANTIC    CLOUDY    46  33  60 NE7       30.47F                  
OXFORD         CLOUDY    40  30  67 E8        30.44F                  
$$

MEZ002-015-021-024-NHZ003-005-008-011-012-014-VTZ005-008-221800-
NORTHERN NEW ENGLAND
  
CITY           SKY/WX    TMP DP  RH WIND       PRES   REMARKS
PORTLAND ME    MOSUNNY   38  27  64 E7        30.58F                  
BANGOR ME      MOSUNNY   36  15  42 N7        30.58F WCI  30          
CONCORD NH     CLOUDY    37  20  50 E8        30.53F WCI  31          
MANCHESTER NH  CLOUDY    39  23  52 E6        30.52F                  
NASHUA NH      CLOUDY    40  27  59 E7        30.54F                  
PORTSMOUTH NH  CLOUDY    41  24  51 NE8       30.53                   
JAFFREY NH     CLOUDY    36  24  62 VRB5      30.49F                  
KEENE NH       LGT RAIN  39  26  59 SE6       30.51F                  
BURLINGTON VT  NOT AVBL                                               
MT. WASHINGTON PTSUNNY   21  -2  35 SW15        N/A  WCI   8          
$$

NYZ052-076-221800-
EASTERN NEW YORK
  
CITY           SKY/WX    TMP DP  RH WIND       PRES   REMARKS
ALBANY         NOT AVBL                                               
NEW YORK CITY  CLOUDY    49  38  65 NE15      30.42F                  
$$
 
ANZALL-221800-
MARINE OBSERVATIONS
  
STATION/POSITION TIME  TEMP    WIND        PRES    VSBY  WAVE
                       AIR SEA DIR/SP/G                  HT/PER
                 (UTC) (F)     (DEG/KT/KT) (MB)    (MI)  (FT/S)
BOSTON BUOY      1640   44 51   70/ 14/ 17 1034.3F
BUZZARDS BAY     1600           80/ 15/ 16 1033.7S
NANTUCKET SOUND  1640      51   70/ 14/ 16   N/A
MASS BAY-STELLWA NOT AVBL
ISLE OF SHOALS   1600   40      60/ 12/ 16 1034.6S
S OF BLOCK IS    1626      58                N/A           5/ 6
$$

......................KEY.........................
  SKY/WX - SKY CONDITION/PRESENT WEATHER
  TMP    - TEMPERATURE IN FAHRENHEIT
  DWPT   - DEWPOINT IN FAHRENHEIT
  RH     - RELATIVE HUMIDITY IN PERCENT
  WIND   - DIRECTION AND SPEED IN MPH
  PRES   - MEAN SEA LEVEL PRESSURE IN INCHES OF HG
  WCI    - WIND CHILL INDEX
  VSB    - VISIBILITY IN MILES
  HX     - HEAT INDEX
  TC     - TEMPERATURE IN CELSIUS
  VRB    - VARIABLE WIND DIRECTION
  N/A    - NOT AVAILABLE
  
      

Other recent Regional Weather Roundups

Fri Nov 27, 12:04am

Thu Nov 26, 11:04pm

Thu Nov 26, 10:04pm

Thu Nov 26, 9:04pm

Thu Nov 26, 8:04pm

Thu Nov 26, 7:04pm

Thu Nov 26, 6:04pm

Thu Nov 26, 5:04pm

Thu Nov 26, 4:04pm

Thu Nov 26, 2:04pm

Thu Nov 26, 1:04pm

Thu Nov 26, 12:04pm

Thu Nov 26, 11:04am

Thu Nov 26, 10:04am

Thu Nov 26, 9:04am

Thu Nov 26, 8:04am

Thu Nov 26, 7:04am

Thu Nov 26, 6:04am

Thu Nov 26, 5:04am

Thu Nov 26, 4:04am

Thu Nov 26, 3:04am

Thu Nov 26, 2:04am

Thu Nov 26, 1:04am

Thu Nov 26, 12:04am

Wed Nov 25, 11:04pm

Wed Nov 25, 10:04pm

Wed Nov 25, 9:04pm

Wed Nov 25, 8:04pm

Wed Nov 25, 7:04pm

Wed Nov 25, 6:04pm

Wed Nov 25, 5:04pm

Wed Nov 25, 4:04pm

Wed Nov 25, 3:05pm

Wed Nov 25, 2:04pm

Wed Nov 25, 1:04pm

Wed Nov 25, 12:05pm

Wed Nov 25, 11:04am

Wed Nov 25, 10:04am

Wed Nov 25, 9:04am

Wed Nov 25, 8:04am

Wed Nov 25, 7:04am

Wed Nov 25, 6:04am

Wed Nov 25, 5:04am

Wed Nov 25, 4:04am

Wed Nov 25, 3:04am

Wed Nov 25, 2:04am

Wed Nov 25, 1:04am

Wed Nov 25, 12:04am

Tue Nov 24, 11:04pm

Tue Nov 24, 10:04pm

Tue Nov 24, 9:04pm

Tue Nov 24, 8:04pm

Tue Nov 24, 7:04pm

Tue Nov 24, 6:04pm

Tue Nov 24, 5:04pm

Tue Nov 24, 4:05pm

Tue Nov 24, 3:05pm

Tue Nov 24, 2:05pm

Tue Nov 24, 1:05pm

Tue Nov 24, 12:04pm

Tue Nov 24, 11:04am

Tue Nov 24, 10:04am

Tue Nov 24, 9:04am

Tue Nov 24, 8:04am

Tue Nov 24, 7:04am

Tue Nov 24, 6:04am

Tue Nov 24, 5:04am

Tue Nov 24, 4:05am

Tue Nov 24, 3:04am

Tue Nov 24, 2:04am

Tue Nov 24, 1:04am

Tue Nov 24, 12:05am

Mon Nov 23, 11:04pm

Mon Nov 23, 10:04pm

Mon Nov 23, 9:04pm

Mon Nov 23, 8:04pm

Mon Nov 23, 7:04pm

Mon Nov 23, 6:04pm

Mon Nov 23, 5:04pm

Mon Nov 23, 4:04pm

Mon Nov 23, 3:04pm

Mon Nov 23, 2:04pm

Mon Nov 23, 1:04pm

Mon Nov 23, 12:04pm

Mon Nov 23, 11:04am

Mon Nov 23, 10:04am

Mon Nov 23, 9:04am

Mon Nov 23, 8:05am

Mon Nov 23, 7:04am

Mon Nov 23, 6:04am

Mon Nov 23, 5:04am

Mon Nov 23, 4:04am

Mon Nov 23, 3:04am

Mon Nov 23, 2:04am

Mon Nov 23, 1:04am

Mon Nov 23, 12:05am

Sun Nov 22, 11:04pm

Sun Nov 22, 10:04pm

Sun Nov 22, 9:04pm

Sun Nov 22, 8:05pm

Sun Nov 22, 7:04pm

Sun Nov 22, 6:04pm

Sun Nov 22, 5:04pm

Sun Nov 22, 4:04pm

Sun Nov 22, 3:04pm

Sun Nov 22, 2:04pm

Sun Nov 22, 1:05pm

Sun Nov 22, 11:04am

Sun Nov 22, 10:05am

Sun Nov 22, 9:04am

Sun Nov 22, 8:04am

Sun Nov 22, 7:04am

Sun Nov 22, 6:04am

Sun Nov 22, 5:04am

Sun Nov 22, 4:04am

Sun Nov 22, 3:04am

Sun Nov 22, 2:04am

Sun Nov 22, 1:04am

Sun Nov 22, 12:04am

Sat Nov 21, 11:04pm

Sat Nov 21, 10:04pm

Sat Nov 21, 9:04pm

Sat Nov 21, 8:05pm

Sat Nov 21, 7:04pm

Sat Nov 21, 6:04pm

Sat Nov 21, 5:04pm

Sat Nov 21, 4:05pm

Sat Nov 21, 3:04pm

Sat Nov 21, 2:04pm

Sat Nov 21, 1:05pm

Sat Nov 21, 12:04pm

Sat Nov 21, 11:04am

Sat Nov 21, 10:04am

Sat Nov 21, 9:04am

Sat Nov 21, 8:04am

Sat Nov 21, 7:04am

Sat Nov 21, 6:04am

Sat Nov 21, 5:04am

Sat Nov 21, 4:04am

Sat Nov 21, 3:04am

Sat Nov 21, 2:04am

Sat Nov 21, 1:04am

Sat Nov 21, 12:04am

Fri Nov 20, 11:04pm

Fri Nov 20, 10:04pm

Fri Nov 20, 9:04pm

Fri Nov 20, 8:04pm

Fri Nov 20, 7:04pm

Fri Nov 20, 6:04pm

Fri Nov 20, 5:04pm

Fri Nov 20, 4:05pm

Fri Nov 20, 3:05pm

Fri Nov 20, 2:04pm

Fri Nov 20, 1:04pm

Fri Nov 20, 12:04pm

Fri Nov 20, 11:04am

Fri Nov 20, 10:04am

Fri Nov 20, 9:04am

Fri Nov 20, 8:04am

Fri Nov 20, 7:04am

Fri Nov 20, 6:04am

Fri Nov 20, 5:04am

Fri Nov 20, 4:04am

Meta data:

ID: 53be134a-3cb6-4842-96d8-82fbecfaf021
Link: https://api.weather.gov/products/53be134a-3cb6-4842-96d8-82fbecfaf021